Hourly Data Report for July 25, 2021

POND INLET A
NUNAVUT
Current Station Operator: NAVCAN

72°41'22.000" N
77°58'08.000" W
61.60 m
2403206
71095
YIO

Download Data

Hourly Data (July 2021)
Hourly Data Report for July 25, 2021
TIME
LST
Temp Definition
°C
Dew Point Definition
°C
Rel Hum Definition
%
Precip. Amount Definition
mm

Wind Dir Definition
10's deg

Wind Spd Definition
km/h
Visibility Definition
km
Stn Press Definition
kPa
Hmdx Definition


Wind Chill Definition


Weather Definition


00:00 1.7 -0.5 86 0.0 5 41 16.1 99.14     LegendNANA
01:00 2.0 -0.7 83 0.0 6 34 16.1 99.12     LegendNANA
02:00 1.7 -0.4 86 0.0 5 34 16.1 99.12     LegendNANA
03:00 2.3 -1.0 79 0.0 4 35 16.1 99.08     LegendNANA
04:00 2.6 -0.7 79 0.0 6 37 16.1 99.01     LegendNANA
05:00 2.4 -0.6 81 0.0 5 39 16.1 98.98     LegendNANA
06:00 2.7 -0.7 78 0.0 5 37 16.1 98.94     LegendNANA
07:00 2.8 -0.4 79 0.0 5 39 16.1 98.91     LegendNANA
08:00 3.0 -0.4 78 0.0 5 41 16.1 98.92     LegendNANA
09:00 3.0 0.2 82 0.0 5 50 16.1 98.90     LegendNANA
10:00 3.4 0.4 81 0.0 5 39 16.1 98.87     LegendNANA
11:00 3.4 0.5 82 0.0 5 46 16.1 98.84     LegendNANA
12:00 3.4 0.3 80 0.0 6 41 16.1 98.85     LegendNANA
13:00 3.8 0.1 77 0.0 5 43 16.1 98.83     LegendNANA
14:00 5.2 0.4 71 0.0 5 58 16.1 98.72     LegendNANA
15:00 4.7 0.1 72 0.0 5 55 16.1 98.80     LegendNANA
16:00 3.6 0.5 80 0.0 6 55 14.5 98.68     LegendNANA
17:00 4.1 0.6 78 0.0 7 37 16.1 98.80     LegendNANA
18:00 3.5 0.6 81 0.0 7 52 16.1 98.76     Rain
19:00 4.0 1.0 81 0.0 6 43 16.1 98.77     Rain
20:00 3.7 1.1 83 1.2 8 28 16.1 98.81     Rain
21:00 3.5 1.1 84 1.8 5 43 16.1 98.80     Rain
22:00 3.2 0.8 84 1.5 5 41 16.1 98.73     Rain
23:00 3.5 0.7 82 0.2 5 35 16.1 98.72     Rain

Notes on Data Quality.

Legend

  • E = Estimated
  • M = Missing
  • NA = Not Available*
  • [empty] = Indicates an unobserved value
Date modified: